Tracking 32963 objects as of 21-Jan-2026
HD Live streaming from Space Station
objects crossing your sky now

TITAN 3C TRANSTAGE DEB

Track TITAN 3C TRANSTAGE DEB now!


NORAD ID: 43513
Int'l Code: 1969-013R
Perigee: 36,986.4 km
Apogee: 37,530.8 km
Inclination: 1.2 °
Period: 1,511.6 minutes
Semi major axis: 43629 km
RCS: Unknown
Launch date: February 9, 1969
Source: United States (US)
Launch site: AIR FORCE EASTERN TEST RANGE (AFETR)

Note: This is SATELLITE DEBRIS
Your satellite tracking list
Your tracking list is empty




NASA's NSSDC Master Catalog

Two Line Element Set (TLE):
1 43513U 69013R   25357.85037567 -.00000063  00000-0  00000-0 0  9998
2 43513   1.1730 151.1096 0062391 203.6260 155.2491  0.95264556 26718
Source of the keplerian elements: AFSPC